Location: ????????
(55.6333°N, 37.7000°E)
Time: 00:27:47
(UTC+00:00)

Resurs 1-4 Rocket - Pass Details

Date: 28 May 2026
Orbit: 797 x 813 km, 98.8° (Epoch: 10 June)

Event Time Altitude Azimuth Distance (km) Brightness Sun altitude
Rises 22:44:54 0° 27° (NNE) 3,321 7.3 -11.0°
Reaches altitude 10° 22:48:25 10° 51° (NE) 2,382 5.5 -10.8°
Maximum altitude 22:51:14 14° 84° (E) 2,079 4.6 -10.7°
Drops below altitude 10° 22:54:02 10° 117° (ESE) 2,372 4.5 -10.6°
Sets 22:57:30 0° 141° (SE) 3,295 5.0 -10.4°
